Aérodrome :
LOGIN :

S'inscrire | Disclaimer

   EN    FR    IT 

 










Légende :    VFR   VFR Marginal   IFR   IFR Intensif   IFR Très Intensif
Visi : 
Plafond : 
>= 8 km
>= 3000ft
5 à 8 km
1000 à 3000 ft
1500m à 5 km
500 à 1000 ft
800 à 1500m
200 à 500 ft
< 800m
< 200 ft
Symboles :   Orages  Brouillard  Fortes neiges  Fortes précipitations  Vent > 20 kt
SIGMETs :   Divers  Orages  Givrage  Turbulence  Onde Orograph.  Cendres Volcan.







- Altitude de l'aérodrome : 574 ft
- Code IATA : NDR


GMMW - Nador El Aroui

DERNIER METAR :
  • 180800Z VRB02KT 6000 NSC 07/06 Q1017 NOSIG

METARs EXPIRÉS :
  • 180700Z 27002KT 6000 NSC 05/04 Q1017 NOSIG
  • 180600Z 26002KT 6000 NSC 06/05 Q1017 NOSIG

TAF TAF GMMW
Valide du 18 à 06h jusqu'au 19 à 12h UTC


180500Z 1806/1912 VRB02KT 6000 NSC
Pas de NOTAMs connus pour ce terrain.
1 SIGMET publié pour la FIR Casablanca (GMMM) :
 
Orages noyés dans la masse
GMMM SIGMET 01 VALID 180600/181000 GMMC
GMMM CASABLANCA FIR EMBD TS OBS N OF LINE N3537 W00727 - N3231 W0092 4 - N3412 W01058 - N3545 W01055 TOP FL300 MOV NE INTSF=



MET'MAP, la Météo Aéronautique d'un coup d'oeil ! - Copyright ORBIFLY Décembre 2007 - Disclaimer

ORBIFLY MET'MAP TEAM :

Programmation & Développement : Alexandra Zaïnal
Conception & Développement : Baudouin d'Aumeries
Co-Programmation & Développement : Marc-Olivier Méhu
Soutien technique & logistique : Manuel Goepfert

Contact : metmap@orbifly.com




SOURCES & CREDITS :

   NOAA